TimeCST,TemperatureF,Dew PointF,Humidity,Sea Level PressureIn,VisibilityMPH,Wind Direction,Wind SpeedMPH,Gust SpeedMPH,PrecipitationIn,Events,Conditions,WindDirDegrees,DateUTC
12:55 AM,54.7,47.8,78,30.15,10.0,SSE,3.5,-,N/A,,Mostly Cloudy,160,2012-11-27 06:55:00
1:55 AM,56.1,48.7,76,30.15,10.0,South,3.5,-,N/A,,Overcast,170,2012-11-27 07:55:00
2:55 AM,56.3,48.7,76,30.14,10.0,Calm,Calm,-,N/A,,Overcast,0,2012-11-27 08:55:00
3:55 AM,56.5,48.4,74,30.12,10.0,East,3.5,-,N/A,,Overcast,100,2012-11-27 09:55:00
4:55 AM,56.8,48.4,73,30.12,10.0,SE,4.6,-,N/A,,Overcast,130,2012-11-27 10:55:00
5:35 AM,57.2,48.2,72,30.13,10.0,Calm,Calm,-,N/A,Rain,Light Rain,0,2012-11-27 11:35:00
5:55 AM,57.0,48.7,74,30.14,7.0,Calm,Calm,-,N/A,Rain,Light Rain,0,2012-11-27 11:55:00
6:04 AM,57.2,48.2,72,30.14,9.0,Calm,Calm,-,N/A,Rain,Light Rain,0,2012-11-27 12:04:00
6:06 AM,57.2,50.0,77,30.14,9.0,Calm,Calm,-,N/A,Rain,Light Rain,0,2012-11-27 12:06:00
6:08 AM,57.2,50.0,77,30.14,9.0,Calm,Calm,-,N/A,Rain,Light Rain,0,2012-11-27 12:08:00
6:55 AM,54.1,51.8,92,30.15,6.0,ENE,3.5,-,N/A,Rain,Light Rain,60,2012-11-27 12:55:00
7:07 AM,53.6,51.8,94,30.15,10.0,East,4.6,-,N/A,Rain,Light Rain,90,2012-11-27 13:07:00
7:22 AM,53.6,51.8,94,30.15,6.0,East,3.5,-,N/A,Rain,Light Rain,90,2012-11-27 13:22:00
7:27 AM,53.6,51.8,94,30.16,10.0,East,3.5,-,N/A,Rain,Light Rain,80,2012-11-27 13:27:00
7:34 AM,53.6,51.8,94,30.16,7.0,East,3.5,-,N/A,Rain,Light Rain,100,2012-11-27 13:34:00
7:43 AM,53.6,53.6,100,30.16,2.5,SE,4.6,-,N/A,Rain,Rain,130,2012-11-27 13:43:00
7:53 AM,53.6,53.6,100,30.16,3.0,SE,5.8,-,N/A,Rain,Rain,130,2012-11-27 13:53:00
7:55 AM,54.1,52.7,95,30.16,3.0,SE,5.8,-,N/A,Rain,Rain,130,2012-11-27 13:55:00
8:00 AM,53.6,53.6,100,30.16,4.0,ESE,5.8,-,N/A,Rain,Rain,120,2012-11-27 14:00:00
8:01 AM,53.6,53.6,100,30.16,4.0,ESE,5.8,-,N/A,Rain,Rain,120,2012-11-27 14:01:00
8:08 AM,53.6,53.6,100,30.16,4.0,ESE,4.6,-,N/A,Rain,Rain,120,2012-11-27 14:08:00
8:23 AM,55.4,53.6,94,30.16,4.0,ESE,4.6,-,N/A,Rain,Light Rain,120,2012-11-27 14:23:00
8:27 AM,55.4,53.6,94,30.16,5.0,ESE,3.5,-,N/A,Rain,Light Rain,110,2012-11-27 14:27:00
8:35 AM,55.4,53.6,94,30.16,6.0,ESE,4.6,-,N/A,Rain,Light Rain,110,2012-11-27 14:35:00
8:38 AM,55.4,53.6,94,30.16,5.0,East,4.6,-,N/A,Rain,Light Rain,100,2012-11-27 14:38:00
8:55 AM,55.4,54.5,97,30.15,8.0,ESE,5.8,-,N/A,Rain,Light Rain,110,2012-11-27 14:55:00
9:00 AM,55.4,55.4,100,30.16,9.0,ESE,6.9,-,N/A,Rain,Light Rain,110,2012-11-27 15:00:00
9:04 AM,55.4,55.4,100,30.16,10.0,ESE,6.9,-,N/A,,Overcast,120,2012-11-27 15:04:00
9:15 AM,57.2,55.4,94,30.16,10.0,SE,5.8,-,N/A,,Overcast,130,2012-11-27 15:15:00
9:17 AM,57.2,55.4,94,30.16,10.0,SE,5.8,-,N/A,,Overcast,130,2012-11-27 15:17:00
9:29 AM,57.2,55.4,94,30.16,10.0,SE,6.9,-,N/A,,Overcast,130,2012-11-27 15:29:00
9:38 AM,57.2,57.2,100,30.15,10.0,SE,5.8,-,N/A,Rain,Light Rain,130,2012-11-27 15:38:00
9:55 AM,57.7,56.7,96,30.15,7.0,SE,4.6,-,N/A,Rain,Light Rain,140,2012-11-27 15:55:00
9:56 AM,57.2,57.2,100,30.15,6.0,SE,4.6,-,N/A,Rain,Light Rain,140,2012-11-27 15:56:00
10:55 AM,58.6,57.7,97,30.14,5.0,WNW,6.9,-,N/A,Rain,Rain,290,2012-11-27 16:55:00
11:16 AM,59.0,57.2,94,30.14,4.0,NNW,3.5,-,N/A,Rain,Light Rain,330,2012-11-27 17:16:00
11:17 AM,59.0,57.2,94,30.14,2.5,NNW,3.5,-,N/A,Rain,Rain,330,2012-11-27 17:17:00
11:18 AM,59.0,57.2,94,30.14,1.8,NNW,3.5,-,N/A,Rain,Heavy Rain,330,2012-11-27 17:18:00
11:20 AM,59.0,57.2,94,30.14,1.2,Calm,Calm,-,N/A,Rain,Heavy Rain,0,2012-11-27 17:20:00
11:21 AM,59.0,57.2,94,30.14,1.0,Calm,Calm,-,N/A,Rain,Heavy Rain,0,2012-11-27 17:21:00
11:24 AM,59.0,57.2,94,30.14,1.0,NNW,3.5,-,N/A,Rain,Heavy Rain,340,2012-11-27 17:24:00
11:26 AM,59.0,57.2,94,30.14,1.0,Calm,Calm,-,N/A,Rain,Heavy Rain,0,2012-11-27 17:26:00
11:31 AM,59.0,57.2,94,30.14,0.8,Calm,Calm,-,N/A,Rain,Heavy Rain,0,2012-11-27 17:31:00
11:32 AM,59.0,57.2,94,30.14,0.8,Calm,Calm,-,N/A,Rain,Heavy Rain,0,2012-11-27 17:32:00
11:34 AM,59.0,57.2,94,30.15,0.8,Calm,Calm,-,N/A,Rain,Heavy Rain,0,2012-11-27 17:34:00
11:39 AM,59.0,57.2,94,30.15,1.0,NW,3.5,-,N/A,Rain,Heavy Rain,310,2012-11-27 17:39:00
11:40 AM,59.0,57.2,94,30.15,1.0,NW,3.5,-,N/A,Rain,Heavy Rain,310,2012-11-27 17:40:00
11:42 AM,59.0,57.2,94,30.16,1.2,WNW,4.6,-,N/A,Rain,Heavy Rain,300,2012-11-27 17:42:00
11:49 AM,59.0,57.2,94,30.16,1.0,WNW,4.6,-,N/A,Rain,Heavy Rain,300,2012-11-27 17:49:00
11:55 AM,58.3,57.4,97,30.15,1.0,NW,5.8,-,N/A,Rain,Heavy Rain,320,2012-11-27 17:55:00
11:56 AM,59.0,57.2,94,30.15,1.2,NW,4.6,-,N/A,Rain,Heavy Rain,320,2012-11-27 17:56:00
11:58 AM,59.0,57.2,94,30.15,1.5,NNW,4.6,-,N/A,Rain,Heavy Rain,330,2012-11-27 17:58:00
12:01 PM,59.0,57.2,94,30.15,2.0,NNW,3.5,-,N/A,Rain,Heavy Rain,330,2012-11-27 18:01:00
12:07 PM,59.0,57.2,94,30.15,3.0,North,3.5,-,N/A,Rain,Heavy Rain,350,2012-11-27 18:07:00
12:55 PM,58.1,57.2,97,30.14,8.0,NNE,4.6,-,N/A,Rain,Light Rain,20,2012-11-27 18:55:00
1:55 PM,57.9,57.0,97,30.12,7.0,East,4.6,-,N/A,Rain,Light Rain,90,2012-11-27 19:55:00
2:42 PM,57.2,57.2,100,30.09,10.0,East,8.1,-,N/A,Rain,Light Rain,100,2012-11-27 20:42:00
2:43 PM,57.2,57.2,100,30.09,10.0,East,8.1,-,N/A,Rain,Light Rain,100,2012-11-27 20:43:00
2:50 PM,57.2,57.2,100,30.09,10.0,East,8.1,-,N/A,Rain,Light Rain,100,2012-11-27 20:50:00
2:51 PM,57.2,57.2,100,30.09,10.0,ESE,8.1,-,N/A,Rain,Light Rain,110,2012-11-27 20:51:00
2:53 PM,57.2,57.2,100,30.09,10.0,East,8.1,-,N/A,Rain,Light Rain,100,2012-11-27 20:53:00
2:55 PM,57.6,57.0,98,30.09,10.0,East,6.9,-,N/A,Rain,Light Rain,100,2012-11-27 20:55:00
3:03 PM,57.2,57.2,100,30.09,10.0,East,4.6,-,N/A,Rain,Light Rain,100,2012-11-27 21:03:00
3:04 PM,57.2,57.2,100,30.09,10.0,East,4.6,-,N/A,Rain,Light Rain,90,2012-11-27 21:04:00
3:10 PM,57.2,57.2,100,30.10,10.0,NE,3.5,-,N/A,Rain,Light Rain,50,2012-11-27 21:10:00
3:11 PM,57.2,57.2,100,30.10,10.0,NE,3.5,-,N/A,Rain,Light Rain,40,2012-11-27 21:11:00
3:51 PM,57.2,57.2,100,30.11,10.0,NNE,3.5,-,N/A,,Overcast,20,2012-11-27 21:51:00
3:55 PM,57.7,57.2,98,30.12,10.0,North,4.6,-,N/A,,Overcast,10,2012-11-27 21:55:00
4:23 PM,57.2,57.2,100,30.13,9.0,North,3.5,-,N/A,,Overcast,10,2012-11-27 22:23:00
4:35 PM,57.2,57.2,100,30.14,7.0,NNW,5.8,-,N/A,,Overcast,330,2012-11-27 22:35:00
4:55 PM,57.9,57.2,97,30.14,9.0,NNW,5.8,-,N/A,,Overcast,330,2012-11-27 22:55:00
5:34 PM,57.2,57.2,100,30.17,10.0,NNW,6.9,-,N/A,,Overcast,330,2012-11-27 23:34:00
5:54 PM,59.0,57.2,94,30.17,10.0,NNW,4.6,-,N/A,,Overcast,340,2012-11-27 23:54:00
5:55 PM,58.3,57.2,96,30.17,10.0,North,3.5,-,N/A,,Overcast,350,2012-11-27 23:55:00
5:57 PM,59.0,57.2,94,30.17,10.0,North,3.5,-,N/A,,Overcast,360,2012-11-27 23:57:00
6:11 PM,57.2,57.2,100,30.17,10.0,NNW,3.5,-,N/A,,Overcast,330,2012-11-28 00:11:00
6:40 PM,57.2,55.4,94,30.19,8.0,Calm,Calm,-,N/A,,Overcast,0,2012-11-28 00:40:00
6:55 PM,57.6,56.7,97,30.20,10.0,Calm,Calm,-,N/A,,Overcast,0,2012-11-28 00:55:00
7:10 PM,57.2,57.2,100,30.20,10.0,NW,3.5,-,N/A,,Overcast,310,2012-11-28 01:10:00
7:13 PM,57.2,57.2,100,30.20,10.0,Calm,Calm,-,N/A,,Overcast,0,2012-11-28 01:13:00
7:23 PM,57.2,57.2,100,30.20,10.0,Calm,Calm,-,N/A,,Overcast,0,2012-11-28 01:23:00
7:26 PM,57.2,57.2,100,30.20,10.0,Calm,Calm,-,N/A,,Overcast,0,2012-11-28 01:26:00
7:27 PM,57.2,57.2,100,30.20,10.0,Calm,Calm,-,N/A,,Overcast,0,2012-11-28 01:27:00
7:29 PM,57.2,57.2,100,30.20,10.0,Calm,Calm,-,N/A,,Overcast,0,2012-11-28 01:29:00
7:33 PM,59.0,57.2,94,30.20,10.0,Calm,Calm,-,N/A,,Overcast,0,2012-11-28 01:33:00
7:37 PM,57.2,57.2,100,30.20,10.0,Calm,Calm,-,N/A,,Overcast,0,2012-11-28 01:37:00
7:55 PM,58.1,57.2,97,30.20,9.0,Calm,Calm,-,N/A,,Overcast,0,2012-11-28 01:55:00
8:02 PM,57.2,57.2,100,30.20,9.0,Calm,Calm,-,N/A,,Overcast,0,2012-11-28 02:02:00
8:37 PM,59.0,57.2,94,30.20,9.0,NW,3.5,-,N/A,,Overcast,310,2012-11-28 02:37:00
8:50 PM,57.2,57.2,100,30.20,8.0,NW,3.5,-,N/A,,Overcast,320,2012-11-28 02:50:00
8:55 PM,57.9,57.0,97,30.20,8.0,NW,3.5,-,N/A,,Overcast,310,2012-11-28 02:55:00
9:06 PM,57.2,57.2,100,30.20,7.0,WNW,5.8,-,N/A,,Overcast,300,2012-11-28 03:06:00
9:09 PM,57.2,57.2,100,30.20,7.0,NW,5.8,-,N/A,,Light Drizzle,310,2012-11-28 03:09:00
9:13 PM,57.2,57.2,100,30.20,6.0,WNW,6.9,-,N/A,,Light Drizzle,300,2012-11-28 03:13:00
9:17 PM,57.2,57.2,100,30.20,5.0,WNW,5.8,-,N/A,,Light Drizzle,300,2012-11-28 03:17:00
9:20 PM,57.2,57.2,100,30.20,4.0,WNW,4.6,-,N/A,,Overcast,300,2012-11-28 03:20:00
9:55 PM,57.2,56.5,97,30.22,7.0,NW,8.1,-,N/A,,Overcast,320,2012-11-28 03:55:00
10:19 PM,57.2,55.4,94,30.22,8.0,NW,6.9,-,N/A,,Overcast,320,2012-11-28 04:19:00
10:23 PM,57.2,55.4,94,30.22,8.0,NNW,6.9,-,N/A,,Overcast,330,2012-11-28 04:23:00
10:47 PM,55.4,55.4,100,30.22,3.0,NW,9.2,-,N/A,,Light Drizzle,320,2012-11-28 04:47:00
10:55 PM,55.8,55.0,97,30.22,6.0,NW,8.1,-,N/A,,Light Drizzle,320,2012-11-28 04:55:00
10:57 PM,55.4,55.4,100,30.22,6.0,NW,8.1,-,N/A,,Overcast,310,2012-11-28 04:57:00
11:05 PM,55.4,55.4,100,30.22,6.0,NW,10.4,-,N/A,,Overcast,320,2012-11-28 05:05:00
11:55 PM,54.5,53.2,96,30.23,7.0,NNW,6.9,-,N/A,,Overcast,340,2012-11-28 05:55:00